Location: Ch?enovice
(49.7164°N, 15.2160°E)
Time: 17:08:16
(UTC+00:00)

SAR-Lupe-4 - Pass Details

Date: 23 May 2024
Orbit: 476 x 482 km, 98.1° (Epoch: 02 April)

Event Time Altitude Azimuth Distance (km) Brightness Sun altitude
Rises 02:08:53 0° 11° (N) 2,554 8.3 -7.7°
Reaches altitude 10° 02:10:58 10° 9° (N) 1,669 7.2 -7.5°
Maximum altitude 02:14:31 64° 287° (WNW) 538 3.6 -7.0°
Drops below altitude 10° 02:18:02 10° 206° (SSW) 1,655 5.7 -6.6°
Enters shadow 02:18:38 - 205° (SSW) 1,910 6.0 -6.6°
